Weather History for Doha, Qatar

Change the Weather History Date:

Saturday, July 20, 2013

  Actual Average Record
Temperature  
Mean Temperature 98 °F -  
Max Temperature 107 °F 106 °F 118 °F (2010)
Min Temperature 90 °F 84 °F 84 °F (1998)
Cooling Degree Days 34    
Growing Degree Days 48 (Base 50)    
Moisture  
Dew Point 81 °F    
Average Humidity 61    
Maximum Humidity 84    
Minimum Humidity 33    
Precipitation  
Precipitation 0.00 in 0.00 in - ()
Sea Level Pressure  
Sea Level Pressure 29.35 in    
Wind  
Wind Speed 6 mph ()    
Max Wind Speed 14 mph    
Max Gust Speed -    
Visibility 4.7 miles    
Events      
Averages and records for this station are not official NWS values.
T = Trace of Precipitation, MM = Missing Value Source: Averaged Metar Reports

Daily Weather History Graph

Daily Weather History Graph

Search for Another Location

Airport:

Trip Planner

Search our weather history database for the weather conditions in past years. The results will help you decide how hot, cold, wet, or windy it might be!

Date:

Astronomy

Jul. 20, 2013 Rise Set
Actual Time 4:55 AM AST 6:24 PM AST
Civil Twilight 4:29 AM AST 6:50 PM AST
Nautical Twilight 3:59 AM AST 7:20 PM AST
Astronomical Twilight 3:28 AM AST 7:51 PM AST
Moon 4:05 PM AST (7/20) 2:10 AM AST (7/20)
Length of Visible Light 14h 20m
Length of Day
13h 29m
Waxing Gibbous, 92% of the Moon is Illuminated
Jul 20
Waxing Gibbous
Jul 22
Full
Jul 29
Last Quarter
Aug 7
New
Aug 14
First Quarter

Hourly Weather History & Observations

Time (AST) Temp. Heat Index Dew Point Humidity Pressure Visibility Wind Dir Wind Speed Gust Speed Precip Events Conditions
12:00 AM 93.2 °F 120.9 °F 84.2 °F 75% 29.33 in 4.3 mi North 6.9 mph - N/A   Unknown
12:30 AM 93.2 °F 124.9 °F 86.0 °F 79% 29.33 in 4.3 mi East 3.5 mph - N/A   Unknown
1:00 AM 91.4 °F 122.4 °F 86.0 °F 84% 29.33 in 4.3 mi Variable 2.3 mph - N/A   Unknown
1:30 AM 91.4 °F 122.4 °F 86.0 °F 84% 29.33 in 4.3 mi Variable 2.3 mph - N/A   Unknown
2:00 AM 91.4 °F 122.4 °F 86.0 °F 84% 29.33 in 4.3 mi Variable 2.3 mph - N/A   Unknown
2:30 AM 91.4 °F 117.8 °F 84.2 °F 79% 29.33 in 4.3 mi North 4.6 mph - N/A   Unknown
3:00 AM 93 °F - 85 °F 72% 29.34 in 4 mi North 5.8 mph - -   Haze
3:00 AM 93.2 °F 120.9 °F 84.2 °F 75% 29.33 in 4.3 mi North 5.8 mph - N/A   Unknown
3:30 AM 91.4 °F 122.4 °F 86.0 °F 84% 29.33 in 4.3 mi NNE 4.6 mph - N/A   Unknown
4:00 AM 91.4 °F 117.8 °F 84.2 °F 79% 29.33 in 4.3 mi Variable 1.2 mph - N/A   Unknown
4:30 AM 91.4 °F 117.8 °F 84.2 °F 79% 29.36 in 4.3 mi Variable 2.3 mph - N/A   Unknown
5:00 AM 91.4 °F 114.3 °F 82.4 °F 75% 29.36 in 3.7 mi SW 3.5 mph - N/A   Unknown
5:30 AM 91.4 °F 111.0 °F 80.6 °F 71% 29.36 in 3.7 mi WSW 3.5 mph - N/A   Unknown
6:00 AM 93.2 °F 113.6 °F 80.6 °F 67% 29.36 in 4.3 mi WSW 3.5 mph - N/A   Unknown
6:30 AM 93.2 °F 113.6 °F 80.6 °F 67% 29.36 in 4.3 mi Variable 2.3 mph - N/A   Unknown
7:00 AM 95.0 °F 115.8 °F 80.6 °F 63% 29.36 in 4.3 mi WSW 3.5 mph - N/A   Unknown
8:00 AM 96.8 °F 112.2 °F 77.0 °F 53% 29.39 in 4.3 mi SW 4.6 mph - N/A   Unknown
8:30 AM 98.6 °F 114.4 °F 77.0 °F 50% 29.39 in 4.3 mi Variable 3.5 mph - N/A   Unknown
9:00 AM 100 °F - 76 °F 38% 29.39 in 5 mi West 4.6 mph - -   Widespread Dust
9:00 AM 100.4 °F 116.5 °F 77.0 °F 47% 29.39 in 5.0 mi West 4.6 mph - N/A   Unknown
9:30 AM 102.2 °F 110.0 °F 69.8 °F 35% 29.36 in 5.0 mi NW 6.9 mph - N/A   Unknown
10:00 AM 104.0 °F 112.2 °F 69.8 °F 33% 29.36 in 5.0 mi NNW 8.1 mph - N/A   Unknown
10:30 AM 104.0 °F 114.0 °F 71.6 °F 35% 29.36 in 5.6 mi NNW 9.2 mph - N/A   Unknown
11:00 AM 105.8 °F 119.1 °F 73.4 °F 36% 29.36 in 5.0 mi NNW 8.1 mph - N/A   Unknown
12:00 PM 105.8 °F 121.3 °F 75.2 °F 38% 29.36 in 5.0 mi NNE 6.9 mph - N/A   Unknown
1:00 PM 105.8 °F 127.2 °F 78.8 °F 43% 29.33 in 5.0 mi East 9.2 mph - N/A   Unknown
2:00 PM 105.8 °F 116.1 °F 71.6 °F 33% 29.33 in 5.0 mi ENE 10.4 mph - N/A   Unknown
2:30 PM 104.0 °F 118.9 °F 75.2 °F 40% 29.33 in 5.0 mi East 13.8 mph - N/A   Unknown
3:00 PM 101 °F - 81 °F 44% 29.34 in 5 mi East 11.5 mph - -   Widespread Dust
3:00 PM 100.4 °F 122.7 °F 80.6 °F 53% 29.33 in 5.0 mi East 11.5 mph - N/A   Unknown
3:30 PM 100.4 °F 119.5 °F 78.8 °F 50% 29.33 in 5.0 mi East 9.2 mph - N/A   Unknown
4:00 PM 100.4 °F 113.6 °F 75.2 °F 44% 29.33 in 5.0 mi NE 8.1 mph - N/A   Unknown
4:30 PM 100.4 °F 119.5 °F 78.8 °F 50% 29.33 in 5.0 mi NNE 8.1 mph - N/A   Unknown
5:00 PM 98.6 °F 117.2 °F 78.8 °F 53% 29.33 in 4.3 mi NNE 8.1 mph - N/A   Unknown
5:30 PM 98.6 °F 120.3 °F 80.6 °F 56% 29.33 in 4.3 mi NNE 9.2 mph - N/A   Unknown
6:00 PM 96.8 °F 118.6 °F 80.6 °F 60% 29.33 in 4.3 mi NNE 8.1 mph - N/A   Unknown
6:30 PM 96.8 °F 121.7 °F 82.4 °F 63% 29.36 in 4.3 mi North 8.1 mph - N/A   Unknown
7:00 PM 95.0 °F 119.6 °F 82.4 °F 67% 29.36 in 4.3 mi North 9.2 mph - N/A   Unknown
7:30 PM 95.0 °F 123.7 °F 84.2 °F 71% 29.36 in 5.0 mi North 10.4 mph - N/A   Unknown
8:00 PM 95.0 °F 123.7 °F 84.2 °F 71% 29.36 in 5.0 mi North 10.4 mph - N/A   Unknown
8:30 PM 95.0 °F 123.7 °F 84.2 °F 71% 29.39 in 5.0 mi North 10.4 mph - N/A   Unknown
9:00 PM 95 °F - 82 °F 58% 29.40 in 6 mi NNW 12.7 mph - -   Haze
9:00 PM 95.0 °F 119.6 °F 82.4 °F 67% 29.39 in 5.6 mi NNW 12.7 mph - N/A   Unknown
9:30 PM 95.0 °F 119.6 °F 82.4 °F 67% 29.39 in 5.6 mi NNW 12.7 mph - N/A   Unknown
10:00 PM 93.2 °F 120.9 °F 84.2 °F 75% 29.39 in 5.6 mi NNW 11.5 mph - N/A   Unknown
10:30 PM 93.2 °F 120.9 °F 84.2 °F 75% 29.39 in 5.6 mi NNW 10.4 mph - N/A   Unknown
11:00 PM 93.2 °F 120.9 °F 84.2 °F 75% 29.39 in 5.6 mi NNW 11.5 mph - N/A   Partly Cloudy